Paganella, Italy

8:51 AM CEST on September 23, 2017 (GMT +0200)
Paganella

Weather History for LIVP - November, 2012

Change the Weather History Date:

Monday, November 19, 2012

  Actual Average Record
Temperature  
Mean Temperature 35 °F -  
Max Temperature 38 °F 31 °F 48 °F (2015)
Min Temperature 32 °F 23 °F 12 °F (1998)
Degree Days  
Heating Degree Days 30    
Moisture  
Dew Point 29 °F    
Average Humidity 79    
Maximum Humidity 100    
Minimum Humidity 51    
Precipitation  
Precipitation 0.00 in 0.05 in - ()
Sea Level Pressure  
Sea Level Pressure 29.99 in    
Wind  
Wind Speed 4 mph ()    
Max Wind Speed 8 mph    
Max Gust Speed -    
Visibility 7.5 miles    
Events      
Averages and records for this station are not official NWS values.
T = Trace of Precipitation, MM = Missing Value Source: Averaged Metar Reports

Daily Weather History Graph

Daily Weather History Graph

Search for Another Location

Airport or City:

Trip Planner

Search our weather history database for the weather conditions in past years. The results will help you decide how hot, cold, wet, or windy it might be!

Date:

Astronomy

Nov. 19, 2012 Rise Set
Actual Time 7:22 AM CET 4:39 PM CET
Civil Twilight 6:49 AM CET 5:12 PM CET
Nautical Twilight 6:13 AM CET 5:49 PM CET
Astronomical Twilight 5:37 AM CET 6:24 PM CET
Moon 12:09 PM CET (11/19) 10:56 PM CET (11/19)
Length of Visible Light 10h 22m
Length of Day
9h 16m
Waxing Crescent, 38% of the Moon is Illuminated
Nov 19
Waxing Crescent
Nov 20
First Quarter
Nov 28
Full
Dec 6
Last Quarter
Dec 13
New

Hourly Weather History & Observations

Time (CET) Temp. Windchill Dew Point Humidity Pressure Visibility Wind Dir Wind Speed Gust Speed Precip Events Conditions
12:55 AM 32.0 °F 27.5 °F 28.4 °F 87% 29.95 in - SE 4.6 mph - N/A   Clear
1:00 AM 32 °F - 29 °F 82%  in 25 mi SE 4.6 mph - -   Scattered Clouds
1:55 AM 32.0 °F 27.5 °F 30.2 °F 93% 29.95 in - ESE 4.6 mph - N/A   Clear
2:55 AM 32.0 °F 26.4 °F 30.2 °F 93% 29.95 in - SE 5.8 mph - N/A   Clear
3:55 AM 32.0 °F 28.7 °F 28.4 °F 87% 29.95 in - SSE 3.5 mph - N/A   Clear
4:00 AM 32 °F - 29 °F 82%  in 25 mi SSE 3.5 mph - -  
4:55 AM 32.0 °F - 26.6 °F 80% 29.95 in - ENE 2.3 mph - N/A   Clear
5:55 AM 33.8 °F 30.8 °F 26.6 °F 75% 29.95 in 6.2 mi ENE 3.5 mph - N/A   Partly Cloudy
6:55 AM 32.0 °F 27.5 °F 28.4 °F 87% 29.95 in 6.2 mi NE 4.6 mph - N/A   Scattered Clouds
7:00 AM 33 °F - 29 °F 81%  in 31 mi NE 4.6 mph - -   Partly Cloudy
7:55 AM 32.0 °F 25.6 °F 28.4 °F 87% 29.98 in - ENE 6.9 mph - N/A   Clear
8:55 AM 33.8 °F 30.8 °F 30.2 °F 87% 29.98 in - NE 3.5 mph - N/A   Clear
9:55 AM 33.8 °F - 26.6 °F 75% 29.98 in - Variable 2.3 mph - N/A   Clear
10:00 AM 35 °F - 27 °F 62%  in 37 mi 2.3 mph - -   Partly Cloudy
10:55 AM 39.2 °F - 28.4 °F 65% 30.01 in - Calm Calm - N/A   Clear
11:55 AM 39.2 °F 37.0 °F 26.6 °F 61% 29.98 in 6.2 mi Variable 3.5 mph - N/A   Mostly Cloudy
12:55 PM 37.4 °F 34.9 °F 26.6 °F 65% 29.98 in 6.2 mi Variable 3.5 mph - N/A   Mostly Cloudy
1:00 PM 38 °F - 26 °F 51%  in 44 mi 3.5 mph - -   Mostly Cloudy
1:55 PM 37.4 °F 33.8 °F 26.6 °F 65% 29.98 in 6.2 mi NNE 4.6 mph - N/A   Mostly Cloudy
2:55 PM 37.4 °F 32.8 °F 26.6 °F 65% 29.98 in 6.2 mi NNE 5.8 mph - N/A   Mostly Cloudy
3:55 PM 35.6 °F 29.9 °F 24.8 °F 65% 29.98 in 6.2 mi ENE 6.9 mph - N/A   Mostly Cloudy
4:00 PM 36 °F - 25 °F 54%  in 28 mi ENE 6.9 mph - -   Mostly Cloudy
5:55 PM 35.6 °F 29.9 °F 30.2 °F 81% 30.01 in 6.2 mi East 6.9 mph - N/A   Mostly Cloudy
6:55 PM 35.6 °F 29.2 °F 32.0 °F 87% 30.01 in 6.2 mi ENE 8.1 mph - N/A   Mostly Cloudy
7:00 PM 36 °F - 32 °F 81%  in 19 mi ENE 8.1 mph - -   Scattered Clouds
7:55 PM 35.6 °F 29.9 °F 33.8 °F 93% 30.04 in - NE 6.9 mph - N/A   Clear
8:55 PM 35.6 °F 29.9 °F 35.6 °F 100% 30.04 in - NNE 6.9 mph - N/A   Clear
9:55 PM 35.6 °F 29.2 °F 33.8 °F 93% 30.04 in - NNE 8.1 mph - N/A   Clear
10:00 PM 36 °F - 33 °F 84%  in 25 mi NNE 8.1 mph - -   Partly Cloudy
10:55 PM 35.6 °F 29.9 °F 32.0 °F 87% 30.04 in - North 6.9 mph - N/A   Clear
11:55 PM 35.6 °F 29.9 °F 32.0 °F 87% 30.04 in - North 6.9 mph - N/A   Clear